sat.trackr.live / text

‹ back to catalog

UNKNOWN

NORAD 89183

UNKNOWN UNKNOWN UNKNOWN

§ Identity

Operator
Country
Launch date
Launch site
Launch vehicle
Mass (kg)
RCS (m²)

External: N2YO · Heavens-Above

§ Orbital elements

Epoch: 2026-09-18T13:20:27.218112Z

Period
104.21 min
Inclination
99.2060°
Eccentricity
0.0130313
Mean motion
13.81882371 rev/d
Perigee alt
861.6 km
Apogee alt
1,052.8 km
Semi-major
7,335.4 km
B*
3.7154e-4
RAAN
171.2126°
Arg perigee
131.1271°
Mean anomaly
230.1217°
Rev number
64,561

§ Raw data

UNKNOWN1 89183U          26261.55587058  .00000383  00000+0  37154-3 0  99952 89183  99.2060 171.2126 0130313 131.1271 230.1217 13.81882371645614

JSON: /api/v1/satellites/89183 · /tle

For live sub-satellite position, see the globe view (requires WebGL).

§ Visibility from observer

Set your observer location to see the next 7 days of passes ≥ 10°. The values pass through the URL so the page stays shareable.

No JS? Fill the form by hand. The geolocation button needs JavaScript.